Location: The Saddle
(36.8333°N, 80.3417°W)
Time: 08:22:14
(UTC-04:00)

Vanguard 2 Rocket - Pass Details

Date: 07 February 2023
Orbit: 555 x 3316 km, 32.9° (Epoch: 27 March)

Event Time Altitude Azimuth Distance (km) Brightness Sun altitude
Rises 07:42:13 0° 224° (SW) 5,450 10.6 3.6°
Reaches altitude 10° 07:47:02 10° 215° (SW) 3,933 10.0 4.5°
Maximum altitude 07:54:40 28° 162° (SSE) 2,034 9.4 5.9°
Drops below altitude 10° 07:59:42 10° 104° (ESE) 2,516 11.5 6.9°
Sets 08:02:04 0° 92° (E) 3,217 11.1 7.3°
